Date,TemperatureHighF,TemperatureAvgF,TemperatureLowF,DewpointHighF,DewpointAvgF,DewpointLowF,HumidityHigh,HumidityAvg,HumidityLow,PressureMaxIn,PressureMinIn,WindSpeedMaxMPH,WindSpeedAvgMPH,GustSpeedMaxMPH,PrecipitationSumIn
2013-1-1,43,32,22,21,9,1,91,43,19,0.00,40.00,13,8,31,0.01
2013-1-2,59,42,34,22,10,-1,49,27,16,0.00,40.00,16,5,33,0.15
2013-1-3,60,42,35,22,13,-2,51,32,12,0.00,40.00,6,3,11,0.11
2013-1-4,62,42,36,27,19,6,68,43,15,0.00,40.00,4,2,11,0.09
2013-1-5,56,40,31,31,25,13,73,55,36,0.00,40.00,8,4,20,0.01
2013-1-6,35,30,25,30,26,16,96,83,54,0.00,40.00,11,4,16,0.01
2013-1-7,57,40,32,31,24,14,65,52,32,0.00,40.00,13,5,25,0.14
2013-1-8,75,49,41,34,27,11,59,44,20,0.00,40.00,7,4,17,0.02
2013-1-9,53,42,23,32,25,17,100,57,29,0.00,40.00,19,6,31,0.00
2013-1-10,32,21,16,24,16,12,94,81,55,0.00,40.00,11,6,34,0.00
2013-1-11,32,21,15,18,14,6,92,75,39,0.00,40.00,8,5,15,0.00
2013-1-12,42,21,13,13,5,-8,76,50,25,0.00,40.00,12,6,16,0.00
2013-1-13,40,22,14,10,-5,-16,45,30,19,0.00,40.00,11,6,17,0.00
2013-1-14,45,29,15,20,1,-14,52,31,15,0.00,40.00,11,5,18,0.01
2013-1-15,62,45,36,20,17,14,50,33,17,0.00,40.00,18,7,40,0.21
2013-1-17,72,51,43,22,0,-21,27,14,5,0.00,40.00,9,4,26,0.00
2013-1-18,70,51,43,21,1,-20,32,14,6,0.00,40.00,6,3,14,0.00
2013-1-19,71,50,41,20,5,-14,35,17,6,0.00,40.00,5,4,13,0.00
2013-1-20,63,49,40,6,-4,-11,19,11,7,0.00,40.00,13,6,28,0.00
2013-1-21,68,54,45,17,3,-16,24,13,6,0.00,40.00,13,4,24,0.00
2013-1-22,69,52,44,23,11,-3,31,21,13,0.00,40.00,5,3,14,0.00
2013-1-23,60,47,39,33,13,-4,78,30,12,0.00,40.00,12,5,20,0.00
2013-1-24,49,42,39,43,38,33,100,86,71,0.00,40.00,4,2,16,0.24
2013-1-25,51,44,41,46,29,-100,100,82,71,0.00,40.00,4,2,10,0.46
2013-1-26,50,40,30,41,10,-100,100,68,52,0.00,40.00,9,4,21,0.15
2013-1-27,37,27,22,29,14,-100,97,76,58,0.00,40.00,11,6,21,0.02
2013-1-28,42,29,20,25,15,8,87,59,31,0.00,40.00,11,5,18,0.02
2013-1-29,53,39,28,28,24,18,74,54,37,0.00,40.00,15,6,29,0.06
2013-1-30,63,47,40,36,26,15,70,46,16,0.00,40.00,8,4,19,0.04
2013-1-31,65,50,41,30,22,10,60,36,18,0.00,40.00,6,3,15,0.00
2013-2-1,66,48,40,30,16,1,58,30,8,0.00,40.00,6,3,11,0.00
2013-2-2,57,47,41,28,16,2,55,29,14,0.00,40.00,4,2,14,0.00
2013-2-3,59,47,41,29,17,3,53,31,18,0.00,40.00,9,4,20,0.00
2013-2-4,63,48,41,31,21,5,59,37,18,0.00,40.00,9,3,23,0.00
2013-2-5,56,43,31,33,23,13,94,50,23,0.00,40.00,7,4,18,0.00
2013-2-6,55,39,30,28,12,-7,79,40,9,0.00,40.00,7,4,14,0.00
2013-2-7,35,29,23,30,22,8,98,77,35,0.00,40.00,15,4,27,0.00
2013-2-8,39,26,19,24,15,9,91,64,37,0.00,40.00,9,5,16,0.07
2013-2-9,46,31,23,25,15,9,86,54,23,0.00,40.00,9,5,20,0.05
2013-2-10,44,34,29,16,11,4,49,38,26,0.00,40.00,15,7,30,0.00
2013-2-11,51,35,26,22,9,3,62,35,17,0.00,40.00,12,6,25,0.00
2013-2-12,49,40,34,27,15,5,67,37,28,0.00,40.00,10,4,16,0.00
2013-2-13,56,45,37,27,18,13,42,35,24,0.00,40.00,11,6,21,0.00
2013-2-14,57,46,39,22,18,12,43,33,19,0.00,40.00,17,9,30,0.00
2013-2-15,66,51,42,25,16,3,41,26,14,0.00,40.00,10,5,21,0.00
2013-2-16,60,47,39,27,15,-5,56,30,12,0.00,40.00,7,4,16,0.00
2013-2-17,57,43,36,27,17,6,65,37,20,0.00,40.00,8,3,15,0.00
2013-2-18,52,41,32,32,24,18,98,54,26,0.00,40.00,8,5,18,0.00
2013-2-19,35,26,18,29,22,15,98,85,60,0.00,40.00,12,6,53,0.00
2013-2-20,44,30,19,29,19,13,89,65,28,0.00,40.00,12,6,25,0.05
2013-2-21,48,33,25,26,19,9,89,63,20,0.00,40.00,12,6,25,0.10
2013-2-22,53,38,29,31,21,10,79,52,28,0.00,40.00,8,4,19,0.15
2013-2-23,38,32,26,30,22,5,98,71,38,0.00,40.00,12,6,30,0.06
2013-2-24,55,38,26,24,8,-5,59,32,13,0.00,40.00,7,5,19,0.01
2013-2-25,48,39,32,25,17,7,71,42,28,0.00,40.00,10,5,20,0.00
2013-2-26,53,40,31,12,0,-11,43,19,9,0.00,40.00,10,5,20,0.00
2013-2-27,56,44,34,20,9,-5,50,26,14,0.00,40.00,7,3,17,0.00
2013-2-28,58,45,35,33,24,11,64,45,31,0.00,40.00,9,3,19,0.00
2013-3-1,68,53,43,35,30,23,62,44,24,0.00,40.00,11,4,17,0.00
2013-3-2,65,53,44,31,24,19,59,34,21,0.00,40.00,8,4,17,0.00
2013-3-3,44,38,34,38,35,31,99,91,59,0.00,40.00,5,2,15,0.52
2013-3-4,58,42,33,41,15,-100,98,61,43,0.00,40.00,5,3,17,0.01
2013-3-5,53,42,34,37,33,29,96,72,49,0.00,40.00,9,6,24,0.00
2013-3-6,39,30,26,31,26,17,100,85,61,0.00,40.00,13,7,38,0.00
2013-3-7,42,32,28,30,25,17,97,77,54,0.00,40.00,6,3,15,0.01
2013-3-8,30,29,29,23,21,20,76,72,70,0.00,40.00,3,2,6,0.01